Sisters Island, British Columbia

5:13 AM PST on February 26, 2017 (GMT -0800)
Sisters Island

Weather History for CWGT - May, 2013

Change the Weather History Date:

Friday, May 24, 2013

  Actual Average Record
Temperature  
Mean Temperature 54 °F -  
Max Temperature 57 °F - - ()
Min Temperature 51 °F - - ()
Degree Days  
Heating Degree Days 11    
Growing Degree Days 4 (Base 50)    
Moisture  
Dew Point 46 °F    
Average Humidity 70    
Maximum Humidity 77    
Minimum Humidity 59    
Precipitation  
Precipitation 0.00 in - - ()
Sea Level Pressure  
Sea Level Pressure 29.98 in    
Wind  
Wind Speed 7 mph ()    
Max Wind Speed 16 mph    
Max Gust Speed -    
T = Trace of Precipitation, MM = Missing Value Source: Averaged Metar Reports

Daily Weather History Graph

Daily Weather History Graph

Search for Another Location

Airport or City:

Trip Planner

Search our weather history database for the weather conditions in past years. The results will help you decide how hot, cold, wet, or windy it might be!

Date:

Astronomy

May. 24, 2013 Rise Set
Actual Time 5:22 AM PDT 9:07 PM PDT
Civil Twilight 4:41 AM PDT 9:48 PM PDT
Nautical Twilight 3:46 AM PDT 10:43 PM PDT
Astronomical Twilight 2:24 AM PDT 12:08 AM PDT
Moon 8:53 PM PDT (5/24) 5:04 AM PDT (5/24)
Length of Visible Light 17h 06m
Length of Day
15h 44m
Full, 100% of the Moon is Illuminated
May 24
Full
May 24
Full
May 31
Last Quarter
Jun 8
New
Jun 16
First Quarter

Hourly Weather History & Observations

Time (PDT) Temp. Dew Point Humidity Pressure Visibility Wind Dir Wind Speed Gust Speed Precip Events Conditions
12:00 AM 54.3 °F 46.8 °F 76% 29.97 in - SE 10.4 mph - N/A   Unknown
1:00 AM 53.6 °F 45.7 °F 75% 29.97 in - SE 6.9 mph - N/A   Unknown
2:00 AM 53.2 °F 44.6 °F 72% 29.97 in - SE 9.2 mph - N/A   Unknown
3:00 AM 52.7 °F 44.2 °F 73% 29.97 in - ESE 10.4 mph - N/A   Unknown
4:00 AM 51.8 °F 44.8 °F 77% 29.98 in - East 6.9 mph - N/A   Unknown
5:00 AM 52 °F 43 °F 64% 29.97 in - SSE 9.2 mph - -  
5:00 AM 51.8 °F 43.3 °F 73% 29.97 in - SSE 9.2 mph - N/A   Unknown
6:00 AM 52.3 °F 44.6 °F 75% 29.96 in - SE 8.1 mph - N/A   Unknown
7:00 AM 52.3 °F 43.7 °F 72% 29.97 in - East 5.8 mph - N/A   Unknown
8:00 AM 54.9 °F 44.8 °F 69% 29.98 in - SE 2.3 mph - N/A   Unknown
9:00 AM 54.9 °F 45.1 °F 70% 29.98 in - SSE 1.2 mph - N/A   Unknown
10:00 AM 55.6 °F 46.2 °F 71% 29.99 in - North 2.3 mph - N/A   Unknown
11:00 AM 56 °F 46 °F 61% 29.99 in - Calm Calm - -  
11:00 AM 56.3 °F 46.2 °F 69% 29.99 in - Calm Calm - N/A   Unknown
12:00 PM 54.5 °F 43.7 °F 67% 29.99 in - SSE 5.8 mph - N/A   Unknown
1:00 PM 54.7 °F 45.7 °F 72% 29.98 in - SE 10.4 mph - N/A   Unknown
2:00 PM 55.2 °F 46.6 °F 73% 29.98 in - SE 15.0 mph - N/A   Unknown
3:00 PM 56.1 °F 47.3 °F 72% 29.98 in - SE 9.2 mph - N/A   Unknown
4:00 PM 56.1 °F 46.2 °F 69% 29.98 in - SE 8.1 mph - N/A   Unknown
5:00 PM 56 °F 46 °F 61% 29.97 in - SSE 12.7 mph - -  
5:00 PM 56.3 °F 46.4 °F 69% 29.97 in - SSE 12.7 mph - N/A   Unknown
6:00 PM 57.0 °F 46.4 °F 68% 29.97 in - SE 16.1 mph - N/A   Unknown
7:00 PM 57.0 °F 47.7 °F 71% 29.97 in - SE 11.5 mph - N/A   Unknown
8:00 PM 56.8 °F 48.7 °F 74% 29.97 in - SE 8.1 mph - N/A   Unknown
9:00 PM 57.0 °F 47.7 °F 71% 29.99 in - SE 2.3 mph - N/A   Unknown
10:00 PM 56.5 °F 45.0 °F 65% 29.98 in - SSW 10.4 mph - N/A   Unknown
11:00 PM 55 °F 45 °F 59% 29.98 in - WSW 16.1 mph - -  
11:00 PM 54.7 °F 44.6 °F 69% 29.98 in - WSW 16.1 mph - N/A   Unknown